Location: Владивосток
(43.1151°N, 131.8856°E)
Time: 05:26:02
(UTC+10:00)

CUBEBUG 2 - Pass Details

Date: 06 July 2022
Orbit: 584 x 693 km, 97.7° (Epoch: 07 August)

Event Time Altitude Azimuth Distance (km) Brightness Sun altitude
Rises 02:49:52 0° 37° (NE) 2,857 ? -20.8°
Reaches altitude 10° 02:53:50 10° 75° (ENE) 1,972 ? -20.5°
Maximum altitude 02:54:56 11° 90° (E) 1,923 ? -20.4°
Drops below altitude 10° 02:56:01 10° 104° (ESE) 1,984 ? -20.3°
Enters shadow 02:58:27 - 130° (SE) 2,448 ? -20.1°
